Regional Weather Roundup
Issued by NWS Portland, ME

Home | Current Version | Previous Version | Text Only | Print | Product List | Glossary On
Versions: 1 2 3 4 5 6 7 8 9 10 11 12 13 14 15 16 17 18 19 20 21 22 23 24 25 26 27 28 29 30 31 32 33 34 35 36 37 38 39 40 41 42 43 44 45 46 47 48 49 50
000
ASUS41 KGYX 061010
RWRGYX
WEATHER ROUNDUP FOR MAINE AND NEW HAMPSHIRE
NATIONAL WEATHER SERVICE GRAY ME
500 AM EST TUE DEC 06 2016

MEZ002-005-006-010-012-015-018-020-021-024-026-027-029-061100-
MAINE

CITY           SKY/WX    TMP DP  RH WIND       PRES   REMARKS
PORTLAND       CLEAR     20  18  92 SW3       30.07R
SANFORD        CLEAR     10   7  87 CALM      30.07R
BAR HARBOR     CLEAR     22  21  96 NW3       30.02R
WISCASSET      CLEAR     19  14  81 CALM      30.07R
ROCKLAND       CLEAR     24  21  88 W7        30.04R
FRYEBURG       CLEAR     13  10  88 CALM      30.03R
LEWISTONAUBURN CLEAR     16  15  96 N3        30.05R
AUGUSTA        PTCLDY    20  18  92 CALM      30.04R
WATERVILLE     CLEAR     19  18  95 NW3       30.01R
BANGOR         PTCLDY    19  17  92 N5        30.02S
GREENVILLE       N/A     21  20  96 NW16G24   29.93S WCI   7
MILLINOCKET    CLOUDY    14  12  92 CALM      30.03R
HOULTON        MOCLDY    14  13  95 N6        29.98R
PRESQUE ISLE   CLOUDY     9   7  92 N3        30.01R
FRENCHVILLE    CLOUDY    18  13  80 NW7       29.96S
CARIBOU        CLOUDY    15  11  83 CALM      29.99R
$$

NHZ002-005-008-009-011-012-014-061100-
NEW HAMPSHIRE

CITY           SKY/WX    TMP DP  RH WIND       PRES   REMARKS
PORTSMOUTH     CLEAR     29  26  87 W7        30.07R
ROCHESTER      CLEAR     28  24  85 W5        30.06R
NASHUA         CLEAR     17  16  95 CALM      30.10R
MANCHESTER     CLEAR     21  18  88 CALM      30.07R
CONCORD        PTCLDY    24  21  88 CALM      30.07R
LACONIA        CLEAR     31  28  89 W7        30.06R
PLYMOUTH         N/A     33  28  83 W6        30.06R
BERLIN         CLOUDY    28  22  78 VRB7      30.03R
WHITEFIELD     CLOUDY    30  23  75 NW5       30.06R
JAFFREY        CLOUDY    29  25  85 N3        30.05S
KEENE          CLOUDY    21  20  96 CALM      30.09S
LEBANON        CLOUDY    24  22  91 CALM      30.08R
MT WASHINGTON  BLWGSNOW  10  10 100 NW58        N/A  VSB 0   WCI -18
$$

VTZ005-007-008-061100-
VERMONT

CITY           SKY/WX    TMP DP  RH WIND       PRES   REMARKS
ST JOHNSBURY     N/A     30  26  85 MISG      30.06R
MONTPELIER     CLOUDY    30  28  92 CALM      30.09R
BURLINGTON     CLOUDY    31  28  89 NE6       30.11S
$$

MAZ007-012-024-CTZ003-RIZ002-NYZ038-NYZ072-061100-
SOUTHERN NEW ENGLAND AND NY

CITY           SKY/WX    TMP DP  RH WIND       PRES   REMARKS
BOSTON         CLEAR     34  30  85 NW7       30.10R
WORCESTER      CLEAR     30  27  88 W9        30.06R
NANTUCKET      CLEAR     40  31  70 NW23G30   30.04R
PROVIDENCE     CLEAR     35  28  75 NW7       30.10R
HARTFORD       PTCLDY    30  26  85 NW6       30.10S
ALBANY         MOCLDY    34  30  85 W6        30.11S
NEW YORK CITY  MOCLDY    43  29  57 NW9       30.12S
$$

ANZ081-ANZ082-ANZ150-NHZ014-MEZ023>029-061100-
COASTAL MARINE OBSERVATIONS

STATION/POSITION TIME  TEMP    WIND        PRES    WAVE
                       AIR SEA DIR/SP/G            HT/PER
                 (UTC) (F)     (DEG/KT/KT) (MB)    (FT/S)
MOUNT DESERT ROC 1000   33                 1015.9R
MATINICUS ROCK   1000   35     330/ 18/ 20 1016.4R
ISLE OF SHOALS   1000   36     290/ 17/ 19 1017.9R
JEFFREYS LEDGE   0938      51                N/A     4/ 4
CASHES LEDGE BUO 0950   38 50  320/ 19/ 23 1016.4R   7/ 6
GEORGES BANK BUO 0950   45 51              1012.3R   9/ 7
$$

.............KEY..............
   WCI - WIND CHILL
   TC  - TEMPERATURE IN CELSIUS
   VSB - VISIBILITY IN MILES
   HX  - HEAT INDEX
   FAIR- INDICATES FEW OR NO CLOUDS BELOW 12,000 FT, WITH NO
         SIGNIFICANT WEATHER AND/OR OBSTRUCTIONS TO VISIBILITY.





USA.gov is the U.S. government's official web portal to all federal, state and local government web resources and services.